Content
SEND FEEDBACK

Daily
Averages
Monthly
Summary
Mexico

CANCUN, QUINTANA ROO


Home > North America > Mexico > Quintana Roo
Elevation: 9 meters     Latitude: 21 09N     Longitude: 086 49W

WEATHER
 
SELECT A DAY
Number of Records: 163,700;   Date Range: 1/1/95 - 7/27/14
 
SHARE

PRINT THIS DATA

[ ← Previous Day ]
WEATHER ALMANAC - 28 AUGUST, 2013
[ Next Day → ]
[ °F ]   °C
Weather ElementAverageHighLow
Temperature26.3 °C31 °C (1:41 pm)23 °C (5:42 am)
Dewpoint23.7 °C25 °C (8:45 am)22 °C (6:41 am)
Humidity86.2 %100 % (5:42 am)66 % (11:43 am)
Barometer1014.9 hPa1016.3 hPa (10:02 am)1013.5 hPa (2:41 am)
Wind Speed5.6 km/h20.4 km/h (11:43 am)
Weather ElementAverage
Visibility10.6 km
Wind DirectionESE (97.1 °)

Weather ElementTotal
Precipitation---
Cooling Degree Days8.7 (Base 18.3)
Growing Degree Days17 (Base 10)
Averaged from 24 records on 28 August, 2013
WEATHER CONDITIONS BREAKOUT
WIND DIRECTION BREAKOUT
WEATHER BY HOUR - 28 AUGUST, 2013
[ °F ]   °C
Local TimeTemperatureDewpointHumidityBarometerVisibilityWind DirectionWind SpeedGust SpeedPrecipitationEventsConditions
1:41 AM26 °C24 °C89 %1014.2 hPa11.3 kmENE (70°)3.7 km/hScattered Clouds
2:41 AM25 °C24 °C94 %1013.5 hPa11.3 kmCalmScattered Clouds
3:42 AM24 °C23 °C94 %1013.9 hPa11.3 kmCalmScattered Clouds
4:42 AM24 °C23 °C94 %1013.5 hPa11.3 kmCalmScattered Clouds
5:42 AM23 °C23 °C100 %1013.9 hPa11.3 kmWNW (290°)3.7 km/hScattered Clouds
6:41 AM23 °C22 °C94 %1014.2 hPa11.3 kmNW (310°)5.6 km/hMostly Cloudy
7:40 AM25 °C23 °C89 %1015.2 hPa11.3 kmCalmScattered Clouds
8:45 AM26 °C25 °C94 %1015.6 hPa11.3 kmCalmMostly Cloudy
10:02 AM27 °C22 °C74 %1016.3 hPa11.3 kmSE (130°)7.4 km/hMostly Cloudy
10:50 AM30 °C24 °C70 %1015.9 hPa11.3 kmEast (100°)13 km/hMostly Cloudy
11:43 AM30 °C23 °C66 %1015.6 hPa11.3 kmEast (80°)20.4 km/hMostly Cloudy
12:43 PM30 °C24 °C70 %1015.6 hPa11.3 kmESE (110°)18.5 km/hMostly Cloudy
1:41 PM31 °C24 °C66 %1015.2 hPa11.3 kmESE (110°)13 km/hMostly Cloudy
2:40 PM30 °C24 °C70 %1014.9 hPa11.3 kmNNW (330°)13 km/hMostly Cloudy
3:42 PM26 °C24 °C89 %1014.9 hPa11.3 kmNNW (330°)9.3 km/hMostly Cloudy
4:41 PM28 °C25 °C84 %1013.9 hPa11.3 kmNE (50°)5.6 km/hMostly Cloudy
5:42 PM28 °C25 °C84 %1013.9 hPa11.3 kmCalmOvercast
6:04 PM26 °C24 °C89 %1014.2 hPa4.8 kmNE (40°)9.3 km/hRainRain
6:41 PM27 °C25 °C89 %1014.6 hPa9.7 kmENE (60°)3.7 km/hOvercast
7:42 PM25 °C24 °C94 %1015.2 hPa9.7 kmNW (320°)7.4 km/hOvercast
8:40 PM24 °C23 °C94 %1015.6 hPa9.7 kmCalmOvercast
9:46 PM24 °C23 °C94 %1015.6 hPa9.7 kmCalmMostly Cloudy
10:45 PM25 °C24 °C94 %1016.3 hPa9.7 kmCalmMostly Cloudy
11:40 PM24 °C23 °C94 %1016.3 hPa9.7 kmCalmMostly Cloudy
Hourly data recorded from MMUN, located 0 kilometers away from Cancun, Quintana Roo







STORIES FROM OUR PARTNERS